Weather History for KLOU - April, 2014

Change the Weather History Date:

Sunday, April 27, 2014

  Actual Average Record
Temperature  
Mean Temperature 71 °F 61 °F  
Max Temperature 84 °F 71 °F - ()
Min Temperature 57 °F 51 °F - ()
Degree Days  
Heating Degree Days 0 6  
Month to date heating degree days 152 254  
Since 1 July heating degree days 4638 4177  
Cooling Degree Days 6 1  
Month to date cooling degree days 29 27  
Year to date cooling degree days 29 31  
Growing Degree Days 20 (Base 50)    
Moisture  
Dew Point 54 °F    
Average Humidity 51    
Maximum Humidity 67    
Minimum Humidity 34    
Precipitation  
Precipitation 0.51 in 0.17 in - ()
Month to date precipitation 5.36 3.58  
Year to date precipitation 13.31 14.30  
Sea Level Pressure  
Sea Level Pressure 29.88 in    
Wind  
Wind Speed 6 mph (ESE)    
Max Wind Speed 26 mph    
Max Gust Speed 38 mph    
Visibility 9 miles    
Events Rain , Thunderstorm    
T = Trace of Precipitation, MM = Missing Value Source: NWS Daily Summary

Daily Weather History Graph

Daily Weather History Graph

Search for Another Location

Airport or City:

Trip Planner

Search our weather history database for the weather conditions in past years. The results will help you decide how hot, cold, wet, or windy it might be!

Date:

Astronomy

Apr. 27, 2014 Rise Set
Actual Time 6:50 AM EDT 8:30 PM EDT
Civil Twilight 6:22 AM EDT 8:58 PM EDT
Nautical Twilight 5:48 AM EDT 9:32 PM EDT
Astronomical Twilight 5:12 AM EDT 10:08 PM EDT
Moon 5:49 AM EDT (4/27) 7:04 PM EDT (4/27)
Length of Visible Light 14h 35m
Length of Day
13h 39m
Waning Crescent, 3% of the Moon is Illuminated
Apr 27
Waning Crescent
Apr 29
New
May 6
First Quarter
May 14
Full
May 21
Last Quarter

Hourly Weather History & Observations

Time (EDT) Temp. Heat Index Dew Point Humidity Pressure Visibility Wind Dir Wind Speed Gust Speed Precip Events Conditions
12:53 AM 61.0 °F - 45.0 °F 56% 29.91 in 10.0 mi Calm Calm - N/A   Clear
1:53 AM 60.1 °F - 45.0 °F 57% 29.91 in 10.0 mi Calm Calm - N/A   Clear
2:53 AM 57.9 °F - 46.0 °F 65% 29.90 in 10.0 mi Calm Calm - N/A   Clear
3:53 AM 59.0 °F - 46.9 °F 64% 29.90 in 10.0 mi Calm Calm - N/A   Clear
4:53 AM 60.1 °F - 45.0 °F 57% 29.91 in 10.0 mi Variable 3.5 mph - N/A   Clear
5:53 AM 61.0 °F - 44.1 °F 54% 29.90 in 10.0 mi East 3.5 mph - N/A   Clear
6:53 AM 59.0 °F - 45.0 °F 60% 29.93 in 10.0 mi ENE 3.5 mph - N/A   Clear
7:53 AM 59.0 °F - 44.6 °F 59% 29.96 in 10.0 mi East 6.9 mph - N/A   Clear
8:53 AM 63.0 °F - 46.0 °F 54% 29.96 in 10.0 mi ENE 6.9 mph - N/A   Clear
9:53 AM 66.0 °F - 46.0 °F 48% 29.95 in 10.0 mi East 6.9 mph - N/A   Clear
10:53 AM 71.1 °F - 48.9 °F 45% 29.93 in 10.0 mi East 8.1 mph - N/A   Clear
11:53 AM 73.4 °F - 50.0 °F 44% 29.92 in 10.0 mi ENE 5.8 mph - N/A   Clear
12:53 PM 78.1 °F - 51.1 °F 39% 29.88 in 10.0 mi Variable 6.9 mph - N/A   Clear
1:53 PM 82.0 °F 81.2 °F 53.1 °F 37% 29.86 in 10.0 mi Variable 4.6 mph - N/A   Clear
2:53 PM 82.0 °F 81.2 °F 53.1 °F 37% 29.84 in 10.0 mi SSE 9.2 mph - N/A   Clear
3:53 PM 82.4 °F 81.4 °F 53.6 °F 37% 29.83 in 10.0 mi SSE 11.5 mph 18.4 mph N/A   Clear
4:53 PM 82.9 °F - 52.0 °F 34% 29.79 in 10.0 mi SE 9.2 mph - N/A   Clear
5:53 PM 82.9 °F - 51.1 °F 33% 29.77 in 10.0 mi ESE 6.9 mph - N/A   Clear
6:53 PM 82.0 °F 81.6 °F 55.9 °F 41% 29.79 in 10.0 mi East 5.8 mph - N/A   Scattered Clouds
7:53 PM 79.0 °F - 57.0 °F 47% 29.79 in 10.0 mi SE 4.6 mph - N/A   Mostly Cloudy
8:34 PM 73.9 °F - 60.1 °F 62% 29.89 in 8.0 mi South 24.2 mph 38.0 mph 0.00 in Thunderstorm Thunderstorm
8:36 PM 71.1 °F - 60.1 °F 68% 29.89 in 2.0 mi SSE 23.0 mph 38.0 mph 0.11 in Rain , Thunderstorm Thunderstorms and Rain
8:43 PM 64.9 °F - 61.0 °F 87% 29.89 in 0.8 mi SE 15.0 mph 38.0 mph 0.33 in Rain , Thunderstorm Heavy Thunderstorms and Rain
8:45 PM 66.0 °F - 61.0 °F 84% 29.88 in 1.0 mi SE 9.2 mph 29.9 mph 0.37 in Rain , Thunderstorm Heavy Thunderstorms and Rain
8:51 PM 66.2 °F - 60.8 °F 83% 29.87 in 2.0 mi East 5.8 mph 23.0 mph 0.44 in Rain , Thunderstorm Heavy Thunderstorms and Rain
8:53 PM 66.0 °F - 62.1 °F 87% 29.86 in 6.0 mi ENE 4.6 mph - 0.46 in Rain , Thunderstorm Heavy Thunderstorms and Rain
9:15 PM 66.0 °F - 62.1 °F 87% 29.85 in 10.0 mi Calm Calm - 0.04 in Rain Light Rain
9:26 PM 66.9 °F - 62.1 °F 84% 29.86 in 10.0 mi Calm Calm - 0.04 in Thunderstorm Overcast
9:53 PM 66.0 °F - 61.0 °F 84% 29.86 in 10.0 mi East 5.8 mph - 0.05 in Rain , Thunderstorm Light Rain
10:07 PM 66.9 °F - 62.1 °F 84% 29.88 in 10.0 mi SE 12.7 mph 18.4 mph 0.00 in Rain Light Rain
10:53 PM 66.9 °F - 61.0 °F 81% 29.83 in 10.0 mi East 8.1 mph - 0.00 in Rain Light Rain
11:53 PM 66.0 °F - 60.1 °F 81% 29.82 in 10.0 mi ESE 4.6 mph - 0.00 in   Overcast